Regional Weather Roundup
Issued by NWS

Home | Current Version | Previous Version | Text Only | Print | Product List | Glossary Off
Versions: 1 2 3 4 5 6 7 8 9 10 11 12 13 14 15 16 17 18 19 20 21 22 23 24 25 26 27 28 29 30 31 32 33 34 35 36 37 38 39 40 41 42 43 44 45 46 47 48 49 50

000
ASUS43 KOAX 241210
RWRNE

WEATHER ROUNDUP FOR NEBRASKA
NATIONAL WEATHER SERVICE OMAHA NE
700 AM CDT SAT SEP 24 2016

NOTES: SATELLITE DATA IS BEING USED TO AUGMENT CLOUD COVER ABOVE
       12000 FEET.
       "FAIR" INDICATES FEW OR NO CLOUDS BELOW 12,000 FEET WITH NO
       SIGNIFICANT WEATHER AND/OR OBSTRUCTIONS TO VISIBILITY.

  * THESE STATIONS DO NOT REPORT WEATHER SUCH AS RAIN...SNOW OR FOG.

NEZ001>004-019>022-054>056-241300-
NEBRASKA PANHANDLE

CITY           SKY/WX    TMP DP  RH WIND       PRES   REMARKS
SCOTTSBLUFF    CLEAR     43  43 100 W6        29.93S
6HR MIN TEMP:  43; 6HR MAX TEMP:  51; 6HR PCP:  0.05;

ALLIANCE       CLEAR     42  41  96 W10       29.90F
6HR MIN TEMP:  42; 6HR MAX TEMP:  50; 6HR PCP:  0.02;

CHADRON        CLEAR     46  42  86 S7        29.86F
6HR MIN TEMP:  46; 6HR MAX TEMP:  53; 6HR PCP:  0.02;

KIMBALL        CLEAR     40  39  94 NW6       29.96S
SIDNEY         CLEAR     43  39  86 NW6       29.95S
6HR MIN TEMP:  43; 6HR MAX TEMP:  50; 6HR PCP: TRACE;

$$

NEZ057>060-069>072-079>082-241300-
SOUTHWEST NEBRASKA

CITY           SKY/WX    TMP DP  RH WIND       PRES   REMARKS
NORTH PLATTE   CLOUDY    55  47  74 NW9       29.90R
6HR MIN TEMP:  55; 6HR MAX TEMP:  76; 6HR PCP:  0.13;

IMPERIAL       CLEAR     51  42  71 NW14      29.92S
6HR MIN TEMP:  51; 6HR MAX TEMP:  74; 6HR PCP: TRACE;

LEXINGTON      PTCLDY    66  58  76 SW10      29.86R
MCCOOK         PTCLDY    55  49  80 NW10      29.91R
6HR MIN TEMP:  55; 6HR MAX TEMP:  75; 6HR PCP: TRACE;

OGALLALA       CLEAR     50  44  80 W6        29.92R
$$

NEZ005>010-023>029-035>040-094-241300-
NORTH CENTRAL NEBRASKA

CITY           SKY/WX    TMP DP  RH WIND       PRES   REMARKS
VALENTINE      CLOUDY    56  48  74 W15       29.83F
6HR MIN TEMP:  56; 6HR MAX TEMP:  69; 6HR PCP: TRACE;

AINSWORTH      CLOUDY    60  55  82 W13       29.85R
BROKEN BOW     MOCLDY    68  66  93 S12G23    29.85R
6HR MIN TEMP:  68; 6HR MAX TEMP:  70;

O`NEILL        PTCLDY    71  64  79 SE16      29.83S
ORD            CLOUDY    69  64  84 S12       29.84R
6HR MIN TEMP:  69; 6HR MAX TEMP:  72; 6HR PCP: TRACE;

THEDFORD       CLOUDY    56  51  82 NW8       29.89R
$$

NEZ041-046>049-061>064-073>077-083>087-241300-
SOUTH CENTRAL NEBRASKA

CITY           SKY/WX    TMP DP  RH WIND       PRES   REMARKS
GRAND ISLAND   LGT RAIN  68  66  93 S16       29.87F
6HR MIN TEMP:  69; 6HR MAX TEMP:  73; 6HR PCP:  0.05;

AURORA         RAIN      71  67  87 S9        29.90R
HASTINGS       MOCLDY    69  67  93 SE10      29.90S
6HR MIN TEMP:  69; 6HR MAX TEMP:  73; 6HR PCP:  0.14;

HEBRON         MOCLDY    72  66  80 SE13      29.90F
HOLDREGE       CLOUDY    67  65  92 S9        29.87R
KEARNEY *      CLOUDY    70  64  83 S14       29.86S
YORK           CLOUDY    72  64  78 S14G22    29.90S
$$

NEZ011>018-030>034-042>045-241300-
NORTHEAST NEBRASKA

CITY           SKY/WX    TMP DP  RH WIND       PRES   REMARKS
NORFOLK        PTCLDY    70  63  78 SE13      29.88F
6HR MIN TEMP:  69; 6HR MAX TEMP:  73;

ALBION         TSTM      68  65  88 SE13      29.88R
BLAIR          MOCLDY    72  64  77 SE10      29.96R
FREMONT        CLEAR     71  63  77 SE9       29.94R
TEKAMAH        PTCLDY    69  64  84 SE8       29.94S
6HR MIN TEMP:  68; 6HR MAX TEMP:  70;

WAYNE          CLEAR     70  64  82 S14G21    29.91S
$$

NEZ050>053-065>068-078-088>093-241300-
SOUTHEAST NEBRASKA

CITY           SKY/WX    TMP DP  RH WIND       PRES   REMARKS
LINCOLN        PTCLDY    72  65  78 S12       29.93S
6HR MIN TEMP:  72; 6HR MAX TEMP:  75;

OMAHA EPPLEY   PTCLDY    72  63  73 S9        29.96R
6HR MIN TEMP:  72; 6HR MAX TEMP:  74; 6HR PCP: TRACE;

BEATRICE       CLEAR     73  66  80 SE12      29.94R
FALLS CITY     CLEAR     69  65  86 SE8       29.97S
6HR MIN TEMP:  68; 6HR MAX TEMP:  71;

NEBRASKA CITY  CLOUDY    69  59  71 S9        29.97S
PLATTSMOUTH    PTCLDY    70  61  74 SE9       29.97S
$$

NEZ044-045-051>053-067-241300-
OMAHA AREA

CITY           SKY/WX    TMP DP  RH WIND       PRES   REMARKS
OMAHA EPPLEY   PTCLDY    72  63  73 S9        29.96R
6HR MIN TEMP:  72; 6HR MAX TEMP:  74; 6HR PCP: TRACE;

BLAIR          MOCLDY    72  64  77 SE10      29.96R
FREMONT        CLEAR     71  63  77 SE9       29.94R
MILLARD        MOCLDY    71  65  79 E5        29.95R
OFFUTT AFB     PTCLDY    70  65  84 SE8       29.95S
PLATTSMOUTH    PTCLDY    70  61  74 SE9       29.97S
WAHOO          PTSUNNY   68  64  84 SE6       29.94R
$$




USA.gov is the U.S. government's official web portal to all federal, state and local government web resources and services.